Temperature
18 18 18 18 18 18 18 18 18 18 18 18 18 18 18 18 18 18 18 18 18 18 18 18 18 18 18 18 18 18 18 18 18 18 18 18 18 18 18 18 18 18 18
18 18 18 18 18 18 18 18 18 18 18 18 18 18 18 18 18 18 18 18 18 18 18 18 18 18 18 18 18 18 18 18 18 18 18 18 18 18 18 18 18 18 18
18 18 18 18 18 18 18 18 18 18 18 18 18 18 18 18 18 18 17 17 17 17 17 18 18 18 18 18 18 18 18 18 18 18 18 18 18 18 18 18 18 18 18
18 18 18 18 18 18 18 18 18 18 18 18 17 17 17 17 17 17 17 17 17 17 17 17 17 17 17 17 17 17 17 17 18 18 18 18 18 18 18 18 18 18 18
18 18 18 18 18 18 18 17 17 17 17 17 17 17 17 17 17 17 17 17 17 17 17 17 17 17 17 17 17 17 17 17 17 18 18 18 18 18 18 18 18 18 18
18 18 18 18 18 18 17 17 17 17 17 17 17 16 16 16 16 16 16 16 16 16 16 16 17 17 17 17 17 17 17 17 17 17 17 18 18 18 18 18 18 18 18
18 18 18 18 17 17 17 17 17 17 17 17 16 16 16 16 16 16 16 16 16 16 16 16 16 16 16 17 17 17 17 17 17 17 17 17 18 18 18 18 18 18 18
18 18 17 17 17 17 17 17 17 17 17 16 16 16 16 16 16 16 16 16 16 16 16 16 16 16 16 16 17 17 17 17 17 17 17 17 17 17 17 18 18 18 18
18 18 17 17 17 17 17 17 17 17 16 16 16 16 16 16 16 16 16 16 16 16 16 16 16 16 16 16 16 17 17 17 17 17 17 17 17 17 17 17 17 17 17
18 18 17 17 17 17 17 17 17 16 16 16 16 16 16 16 16 15 15 15 15 15 15 15 16 16 16 16 16 16 16 17 17 17 17 17 17 17 17 17 17 17 17
18 18 17 17 17 17 17 17 17 16 16 16 16 16 16 16 16 15 15 15 15 15 15 15 15 16 16 16 16 16 16 16 16 17 17 17 17 17 17 17 17 17 17
18 18 17 17 17 17 17 17 16 16 16 16 16 16 16 15 15 15 15 15 15 15 15 15 15 15 15 16 16 16 16 16 16 16 16 17 17 17 17 17 17 17 17
18 18 18 17 17 17 17 17 16 16 16 16 16 16 16 15 15 15 15 15 15 15 15 15 15 15 15 16 16 16 16 16 16 16 16 16 16 16 17 17 17 17 17
18 18 18 17 17 17 17 17 16 16 16 16 16 16 16 15 15 15 15 15 15 15 15 15 15 15 15 15 15 15 15 16 16 16 16 16 16 16 16 17 17 17 17
18 18 18 17 17 17 17 17 16 16 16 16 16 16 15 15 15 15 15 15 15 15 15 15 15 15 15 15 15 15 15 15 15 16 16 16 16 16 16 16 16 17 17
18 18 18 17 17 17 17 17 16 16 16 16 16 16 15 15 15 15 15 15 15 15 15 15 15 15 15 15 15 15 15 15 15 15 16 16 16 16 16 16 16 16 17
18 18 18 18 17 17 17 17 16 16 16 16 16 15 15 15 15 15 15 15 15 15 15 15 15 15 15 15 15 15 15 15 15 15 15 15 16 16 16 16 16 16 16
18 18 18 18 17 17 17 17 16 16 16 16 16 15 15 15 15 15 15 15 15 14 14 15 15 15 15 15 15 15 15 15 15 15 15 15 15 16 16 16 16 16 16
19 18 18 18 17 17 17 17 16 16 16 16 16 15 15 15 15 15 15 15 14 14 14 14 15 15 15 15 15 15 15 15 15 15 15 15 15 15 16 16 16 16 16
19 18 18 18 17 17 17 17 16 16 16 16 15 15 15 15 15 15 15 15 14 14 14 14 14 14 15 15 15 15 15 15 15 15 15 15 15 15 15 16 16 16 16
19 18 18 18 18 17 17 17 17 16 16 16 15 15 15 15 15 15 15 14 14 14 14 14 14 14 15 15 15 15 15 15 15 15 15 15 15 15 15 16 16 16 16
19 18 18 18 18 17 17 17 17 16 16 16 15 15 15 15 15 15 14 14 14 14 14 14 14 14 14 14 14 14 14 15 15 15 15 15 15 15 15 15 15 16 16
19 18 18 18 18 17 17 17 17 16 16 16 16 15 15 15 15 14 14 14 14 14 14 14 14 14 14 14 14 14 14 14 14 14 15 15 15 15 15 15 15 15 16
19 19 18 18 18 17 17 17 17 17 16 16 16 15 15 15 15 14 14 14 14 14 14 14 14 14 14 14 14 14 14 14 14 14 14 14 15 15 15 15 15 15 15
19 19 18 18 18 17 17 17 17 17 16 16 16 15 15 15 15 15 14 14 14 14 14 14 14 14 14 13 13 14 14 14 14 13 14 14 15 15 15 15 15 15 15
19 18 18 18 18 18 17 17 17 17 16 16 16 16 15 15 15 15 14 14 14 14 14 14 14 13 13 13 13 13 13 13 13 13 13 14 14 14 15 15 15 15 15
Wind_Speed
2 3 7 10 11 12 12 12 13 12 13 12 12 12 11 11 10 9 8 8 8 7 7 7 6 6 6 5 5 5 5 5 4 4 3 3 3 2 2 2 2 2 2
5 6 9 11 12 12 12 12 12 12 12 12 12 11 10 10 9 8 8 7 7 6 6 6 5 5 5 5 5 5 4 5 4 3 3 3 2 1 1 1 1 1 1
6 7 9 11 12 12 12 12 12 12 12 12 11 10 9 9 8 8 7 6 6 6 6 5 5 4 4 4 4 4 4 4 4 4 5 4 3 1 1 1 2 1 1
7 8 9 11 12 12 12 12 12 12 11 11 10 9 9 8 8 7 6 6 5 5 5 5 4 4 4 4 4 4 4 4 5 5 5 4 3 2 0 1 1 1 1
7 8 10 12 12 12 12 12 11 11 10 10 9 9 8 8 7 7 6 6 5 5 4 4 4 4 4 4 4 4 4 4 4 5 4 4 4 3 1 1 1 1 1
6 8 10 12 12 12 12 11 11 10 10 9 9 8 8 7 7 7 6 5 5 5 4 4 4 3 4 4 4 4 4 3 4 4 4 4 3 3 2 1 1 2 2
7 7 10 12 12 11 11 10 10 10 9 8 8 7 7 6 6 6 5 5 4 4 4 4 4 4 4 5 5 4 4 3 3 2 3 4 4 4 2 2 1 1 2
7 6 8 11 11 10 9 9 8 8 7 7 6 5 5 5 5 5 5 4 4 4 4 4 4 5 5 5 5 4 4 3 2 2 3 4 5 4 2 1 1 1 2
6 6 5 7 8 8 8 7 7 6 6 5 5 5 4 4 4 5 5 5 4 4 5 5 5 5 5 5 5 5 4 3 2 2 3 4 5 4 2 1 1 2 1
4 4 4 5 5 5 5 5 5 5 5 5 5 5 6 6 6 6 6 5 5 5 6 6 5 5 5 5 5 5 4 3 2 2 3 4 5 4 2 1 1 0 0
4 2 3 3 4 4 3 4 5 5 5 5 5 5 6 6 6 7 7 6 6 6 6 7 6 6 5 6 6 5 4 3 2 3 3 5 5 3 2 1 1 1 1
4 2 2 3 3 3 3 4 4 5 5 4 5 5 5 5 6 6 8 8 8 8 8 8 7 7 6 5 5 5 4 3 3 3 4 5 4 4 3 1 1 1 2
4 3 3 3 3 2 2 3 4 4 4 4 5 5 4 5 6 7 7 8 9 8 8 8 8 7 6 5 4 4 4 3 3 3 4 5 4 3 3 2 1 1 2
4 4 3 3 3 2 3 3 2 2 3 3 4 4 4 3 4 5 5 6 6 6 6 6 5 6 5 5 4 4 3 3 3 4 5 5 4 4 3 3 2 2 3
5 4 4 4 4 3 3 2 2 2 2 3 4 4 3 3 2 3 3 4 5 5 4 4 4 4 4 4 4 4 3 3 3 4 4 5 5 5 4 4 4 3 3
6 5 4 4 4 4 3 2 2 2 2 3 3 3 3 3 2 2 2 3 4 4 4 3 3 3 3 3 4 4 3 3 4 4 4 5 5 5 5 4 4 4 4
6 5 4 4 4 4 3 3 2 2 2 2 2 3 4 3 3 2 2 3 4 5 4 4 4 3 3 3 4 4 3 4 4 4 4 5 5 6 6 5 5 5 4
6 5 5 5 5 4 3 3 2 3 3 3 3 4 4 4 4 3 2 2 4 5 4 3 3 3 4 3 3 3 3 3 4 4 4 5 5 5 6 6 5 5 4
7 6 5 5 5 4 4 4 4 4 3 3 3 3 4 4 4 4 2 2 4 4 3 3 3 2 2 3 3 3 3 3 3 4 4 5 5 5 6 6 5 5 4
6 6 6 5 5 5 4 3 3 3 3 3 3 3 3 4 4 4 3 4 4 3 4 3 3 3 2 2 3 3 3 3 3 4 4 4 5 6 6 6 5 4 5
6 5 5 5 4 4 3 2 2 1 1 2 2 3 4 4 4 4 3 3 3 3 3 3 2 3 3 3 3 4 4 4 4 4 3 3 4 6 6 6 5 4 4
6 5 5 5 5 4 3 2 2 2 1 1 1 3 4 4 4 3 3 2 3 3 4 4 3 2 3 4 2 3 4 5 4 4 4 4 4 4 5 6 5 5 4
6 6 6 6 5 4 4 3 3 3 3 2 2 2 3 4 3 3 3 2 2 2 3 3 2 2 2 3 3 3 2 1 3 4 4 4 5 4 4 5 5 5 4
6 5 5 5 5 4 4 4 4 3 1 1 1 1 2 3 3 3 3 3 2 2 2 2 2 1 2 2 2 2 1 2 1 3 4 4 5 4 5 4 4 5 5
5 5 5 5 4 4 4 5 4 3 2 0 1 1 2 3 3 3 2 2 2 2 2 2 3 2 1 1 1 1 1 2 1 1 2 4 4 4 4 3 3 4 5
5 4 4 5 4 3 4 4 4 4 3 2 1 1 1 2 2 2 2 2 2 1 2 1 2 2 1 1 1 1 1 1 0 1 1 2 3 3 3 3 3 3 4
Wind_Direction
162 173 143 126 119 115 113 113 110 108 108 106 104 102 102 102 101 100 101 102 101 97 93 90 87 82 76 77 77 73 69 63 55 52 54 59 63 74 90 90 88 86 98
145 149 139 127 122 119 115 112 109 108 107 104 102 101 101 100 99 96 96 97 97 95 91 87 86 81 71 65 66 59 54 48 39 35 36 34 36 57 84 103 114 112 107
128 132 134 127 122 118 115 111 109 107 105 102 101 101 100 98 95 93 92 93 92 88 86 81 76 72 67 56 53 44 36 34 33 36 35 23 2 6 85 110 126 123 123
126 125 130 126 120 116 113 110 107 104 103 102 101 100 97 93 90 88 88 86 83 82 79 76 67 56 50 42 36 31 26 29 36 41 31 10 348 332 346 137 140 142 120
119 122 128 124 120 116 112 108 106 105 104 101 99 96 92 89 86 82 80 75 70 66 66 64 55 41 32 27 26 22 17 23 33 36 17 0 344 321 302 265 210 162 144
117 124 127 124 119 116 112 109 107 105 102 99 96 92 87 82 78 74 68 63 58 50 46 45 37 25 15 11 12 10 6 17 36 28 11 357 335 318 300 292 253 181 162
123 123 128 127 122 119 115 112 108 103 99 96 93 88 81 74 68 63 55 48 44 36 30 27 19 11 6 2 1 356 355 3 34 16 356 344 321 316 300 281 269 183 171
127 120 126 129 126 124 120 116 110 104 100 93 87 80 71 58 51 43 34 28 24 20 14 11 5 0 356 354 354 348 343 346 4 4 337 327 316 314 303 269 245 194 176
115 112 107 115 123 123 120 116 109 103 95 86 75 65 55 42 30 20 11 4 1 3 360 355 352 352 353 353 355 356 350 349 16 346 333 324 320 315 299 262 233 215 194
105 105 106 107 107 103 103 109 104 96 87 71 56 45 34 26 17 9 1 354 354 360 357 353 352 354 359 358 1 4 9 14 18 350 331 317 322 324 316 280 243 228 214
125 108 111 109 103 99 96 93 80 70 61 50 40 34 30 24 14 8 6 8 6 3 1 2 3 3 8 5 2 9 21 31 11 343 328 320 325 324 322 302 261 322 328
163 160 137 125 110 99 88 75 61 59 52 43 38 35 33 30 21 19 18 20 19 17 14 15 18 21 24 15 8 14 26 26 11 340 331 330 327 331 329 311 310 332 327
174 174 166 151 136 120 91 81 63 55 46 37 38 40 41 37 32 29 25 19 18 18 17 16 26 25 23 18 14 18 23 25 7 340 331 333 333 336 337 333 333 331 325
166 183 173 156 144 134 113 91 77 59 45 38 39 44 56 50 38 32 29 17 16 13 12 16 20 18 20 21 22 23 20 17 3 350 337 338 342 340 333 325 317 323 319
171 180 173 162 156 142 121 104 86 63 55 52 48 47 65 73 49 34 23 20 17 17 19 14 17 18 16 15 23 31 20 12 4 360 347 346 348 346 335 329 322 318 319
177 177 160 157 152 138 129 117 100 84 70 66 56 54 66 78 74 49 24 16 13 10 14 23 21 19 13 15 17 21 18 14 5 3 359 358 353 350 346 338 326 320 319
175 163 160 158 142 137 133 125 113 93 84 73 58 57 67 74 76 67 40 19 4 6 17 27 26 26 24 23 15 10 16 12 8 8 7 5 358 353 357 354 335 331 329
161 157 164 155 137 134 127 116 99 83 79 67 61 58 59 66 72 67 48 16 5 17 23 27 27 27 22 18 12 6 7 5 5 9 13 10 7 0 358 1 353 354 353
162 156 150 137 133 130 117 99 88 77 67 60 58 51 49 53 58 65 49 18 21 30 23 24 35 34 23 12 13 19 10 11 2 14 15 11 10 7 3 2 9 12 14
148 144 139 131 127 119 104 88 71 59 44 46 43 38 44 46 51 60 51 32 34 38 26 27 36 31 24 2 24 26 11 6 8 18 12 11 10 9 10 13 13 17 22
138 142 144 140 141 130 113 107 100 78 28 23 18 27 38 41 47 56 48 34 32 41 28 25 36 33 18 3 34 14 360 8 18 16 8 14 14 9 11 16 13 14 13
153 154 153 155 154 151 139 127 127 125 94 38 1 23 31 31 33 52 54 37 27 34 29 27 37 36 17 23 58 53 8 355 357 4 8 18 12 10 13 10 9 10 8
163 171 170 165 159 151 134 106 86 64 43 28 16 8 6 23 34 49 53 49 34 42 28 20 36 63 33 14 45 97 92 339 324 340 360 11 6 7 1 360 4 2 4
177 170 160 157 155 149 138 138 137 134 150 230 274 328 357 23 26 34 47 50 46 41 29 8 41 55 75 24 11 42 111 162 86 340 339 351 359 3 356 356 358 359 3
163 159 160 152 149 143 141 147 140 138 155 144 45 28 11 2 11 27 38 43 39 30 27 26 30 39 64 77 31 22 52 57 81 120 326 333 345 341 345 340 348 357 356
147 147 149 147 146 139 139 142 148 153 150 131 97 31 356 341 341 1 23 30 23 15 12 18 30 37 37 53 50 70 95 86 84 132 243 312 327 319 334 341 349 349 348
Height
1516 1517 1519 1520 1521 1522 1524 1525 1526 1526 1527 1528 1529 1530 1530 1531 1531 1532 1532 1533 1533 1533 1533 1533 1533 1534 1534 1534 1534 1534 1534 1534 1534 1534 1534 1534 1534 1534 1534 1534 1534 1534 1534
1517 1518 1520 1521 1522 1523 1525 1526 1526 1527 1528 1529 1529 1530 1531 1531 1532 1532 1533 1533 1533 1533 1534 1534 1534 1534 1534 1534 1534 1534 1534 1534 1534 1534 1534 1534 1534 1534 1534 1534 1534 1534 1534
1517 1519 1521 1522 1523 1525 1525 1527 1527 1528 1529 1530 1530 1531 1531 1532 1532 1533 1533 1533 1533 1533 1533 1534 1534 1534 1534 1534 1534 1534 1534 1534 1535 1535 1535 1535 1534 1534 1534 1534 1534 1534 1534
1519 1520 1522 1523 1525 1526 1527 1528 1528 1529 1530 1530 1531 1532 1532 1532 1533 1533 1533 1533 1533 1533 1533 1534 1534 1534 1534 1534 1534 1534 1535 1535 1535 1535 1535 1535 1535 1535 1534 1534 1534 1534 1534
1520 1522 1523 1525 1526 1527 1528 1529 1529 1530 1531 1531 1532 1533 1533 1533 1533 1533 1533 1533 1533 1533 1533 1533 1533 1534 1534 1534 1534 1534 1534 1535 1535 1535 1535 1535 1535 1535 1534 1534 1534 1534 1534
1522 1523 1525 1526 1527 1528 1529 1530 1531 1531 1532 1532 1533 1533 1534 1534 1534 1533 1533 1533 1533 1533 1533 1533 1533 1533 1533 1534 1534 1534 1534 1534 1535 1535 1535 1535 1535 1535 1534 1534 1533 1533 1534
1523 1525 1527 1528 1529 1530 1531 1532 1532 1533 1533 1534 1534 1535 1535 1535 1534 1534 1534 1534 1533 1533 1533 1533 1533 1533 1533 1533 1534 1534 1534 1534 1534 1534 1535 1535 1535 1534 1534 1534 1533 1533 1534
1525 1527 1528 1530 1531 1531 1532 1533 1534 1534 1535 1535 1536 1536 1536 1535 1535 1535 1534 1534 1534 1534 1533 1533 1533 1533 1533 1533 1533 1533 1534 1534 1534 1534 1534 1534 1535 1534 1534 1534 1533 1534 1534
1527 1529 1530 1531 1532 1533 1534 1535 1535 1536 1536 1537 1537 1537 1537 1536 1536 1535 1535 1535 1534 1534 1534 1533 1533 1533 1533 1533 1533 1533 1533 1534 1534 1534 1534 1534 1534 1534 1534 1534 1534 1534 1534
1529 1530 1532 1533 1534 1535 1536 1536 1537 1537 1538 1538 1538 1538 1537 1537 1537 1536 1536 1535 1534 1534 1534 1533 1533 1533 1532 1532 1532 1532 1533 1533 1533 1534 1534 1534 1534 1534 1534 1534 1534 1533 1533
1530 1532 1533 1534 1536 1537 1537 1538 1538 1539 1539 1539 1539 1539 1538 1538 1537 1537 1536 1535 1535 1534 1534 1533 1533 1533 1532 1532 1532 1532 1532 1533 1533 1533 1533 1534 1534 1534 1534 1534 1533 1534 1534
1531 1533 1535 1536 1537 1538 1539 1539 1540 1540 1540 1540 1540 1539 1539 1538 1538 1537 1536 1536 1535 1534 1534 1533 1533 1533 1532 1532 1532 1532 1532 1532 1532 1532 1533 1533 1533 1533 1534 1534 1533 1534 1534
1533 1534 1536 1537 1538 1539 1540 1541 1541 1541 1541 1541 1541 1540 1539 1539 1538 1537 1537 1536 1535 1534 1534 1533 1533 1532 1532 1532 1531 1531 1531 1532 1532 1532 1532 1532 1533 1533 1533 1533 1533 1533 1533
1533 1535 1537 1538 1539 1540 1541 1542 1542 1542 1542 1542 1541 1541 1540 1539 1538 1537 1537 1536 1535 1535 1534 1533 1533 1532 1532 1531 1531 1531 1531 1531 1531 1532 1532 1532 1533 1533 1533 1533 1533 1533 1533
1534 1536 1537 1539 1540 1541 1542 1543 1543 1543 1543 1542 1542 1541 1540 1539 1538 1538 1537 1536 1535 1534 1534 1533 1533 1532 1532 1531 1531 1531 1531 1531 1531 1531 1532 1532 1532 1532 1532 1532 1532 1532 1532
1535 1537 1538 1540 1541 1542 1543 1543 1544 1544 1544 1543 1543 1542 1541 1540 1539 1538 1537 1536 1535 1534 1534 1533 1532 1532 1531 1531 1531 1530 1530 1531 1531 1531 1532 1532 1532 1532 1532 1532 1532 1532 1531
1536 1537 1539 1540 1541 1542 1543 1544 1544 1544 1544 1544 1543 1543 1542 1541 1540 1539 1538 1536 1535 1534 1534 1533 1532 1532 1532 1531 1531 1530 1530 1530 1530 1531 1531 1532 1532 1531 1531 1531 1531 1531 1530
1536 1538 1539 1541 1542 1543 1544 1544 1545 1545 1545 1544 1544 1543 1542 1541 1540 1539 1538 1537 1535 1534 1534 1533 1532 1532 1531 1531 1530 1530 1530 1530 1530 1530 1531 1531 1531 1531 1531 1531 1531 1531 1530
1536 1538 1540 1541 1542 1543 1544 1545 1545 1545 1545 1545 1544 1544 1543 1542 1541 1540 1538 1537 1536 1535 1534 1533 1532 1532 1531 1531 1530 1530 1530 1530 1530 1530 1530 1531 1531 1531 1531 1531 1531 1530 1530
1537 1539 1540 1541 1543 1544 1545 1545 1546 1546 1546 1545 1545 1544 1544 1543 1542 1540 1539 1538 1536 1535 1534 1533 1533 1532 1531 1531 1531 1530 1530 1530 1530 1530 1530 1530 1531 1531 1531 1531 1531 1531 1530
1536 1538 1540 1541 1543 1544 1545 1546 1546 1546 1546 1546 1546 1545 1544 1543 1542 1541 1540 1539 1537 1536 1535 1534 1533 1533 1532 1532 1531 1531 1531 1531 1530 1530 1530 1530 1530 1531 1531 1531 1531 1531 1531
1535 1538 1540 1542 1543 1544 1545 1546 1546 1546 1546 1546 1546 1545 1545 1544 1543 1542 1541 1539 1538 1537 1536 1535 1534 1533 1533 1532 1532 1531 1531 1532 1531 1531 1530 1530 1530 1531 1531 1531 1531 1531 1531
1535 1537 1540 1541 1543 1544 1545 1546 1547 1547 1547 1547 1546 1546 1545 1545 1544 1543 1542 1540 1539 1538 1537 1536 1535 1534 1533 1533 1532 1533 1532 1532 1531 1532 1531 1531 1531 1531 1531 1531 1531 1531 1531
1535 1537 1539 1541 1543 1544 1545 1546 1547 1547 1547 1547 1547 1546 1546 1545 1544 1544 1542 1541 1540 1538 1537 1536 1536 1535 1534 1534 1533 1533 1533 1533 1533 1532 1532 1532 1531 1531 1531 1531 1531 1531 1531
1534 1537 1539 1541 1543 1544 1545 1546 1547 1547 1547 1547 1547 1547 1546 1546 1545 1544 1543 1542 1541 1539 1538 1537 1536 1536 1535 1534 1534 1533 1533 1533 1533 1533 1532 1532 1532 1531 1531 1531 1531 1531 1531
1533 1536 1538 1541 1542 1544 1545 1546 1547 1547 1547 1547 1547 1547 1547 1546 1545 1545 1544 1543 1541 1540 1539 1538 1537 1536 1535 1535 1534 1534 1533 1533 1533 1533 1532 1532 1531 1531 1531 1531 1531 1531 1531